Total_Precipitation_Accumulation
0.35 0.14 0.22 0.21 0.15 0.12 0.12 0.14 0.15 0.16 0.18 0.19 0.17 0.15 0.12 0.10 0.09 0.11 0.12 0.11 0.11 0.15 0.20 0.24 0.26 0.27 0.28 0.30 0.36 0.43 0.45 0.44 0.39 0.30 0.26 0.26 0.28 0.32 0.43 0.51 0.65 0.85 0.58
0.24 0.12 0.21 0.21 0.14 0.10 0.10 0.11 0.12 0.13 0.14 0.14 0.15 0.13 0.11 0.09 0.07 0.09 0.09 0.08 0.09 0.12 0.16 0.22 0.27 0.29 0.32 0.35 0.45 0.54 0.53 0.49 0.48 0.44 0.46 0.47 0.40 0.37 0.37 0.45 0.74 0.84 0.59
0.17 0.12 0.16 0.20 0.16 0.13 0.13 0.12 0.13 0.17 0.16 0.12 0.16 0.14 0.14 0.11 0.08 0.07 0.07 0.07 0.08 0.09 0.11 0.18 0.28 0.33 0.35 0.44 0.53 0.57 0.60 0.59 0.56 0.53 0.75 1.02 0.64 0.45 0.46 0.50 0.54 0.52 0.53
0.16 0.13 0.19 0.24 0.23 0.23 0.21 0.20 0.23 0.26 0.23 0.22 0.24 0.21 0.22 0.17 0.12 0.09 0.07 0.07 0.08 0.08 0.10 0.14 0.25 0.34 0.38 0.40 0.45 0.49 0.52 0.57 0.62 0.54 0.79 1.06 0.89 0.56 0.58 0.63 0.52 0.48 0.52
0.15 0.14 0.27 0.35 0.36 0.37 0.32 0.32 0.36 0.33 0.30 0.29 0.27 0.25 0.26 0.21 0.19 0.13 0.08 0.08 0.09 0.10 0.12 0.12 0.19 0.29 0.37 0.40 0.41 0.42 0.48 0.66 0.60 0.50 0.65 0.80 0.89 0.67 0.60 0.66 0.57 0.49 0.53
0.24 0.22 0.32 0.39 0.46 0.47 0.36 0.37 0.44 0.39 0.34 0.28 0.22 0.22 0.22 0.19 0.19 0.13 0.10 0.11 0.09 0.10 0.11 0.12 0.16 0.23 0.31 0.37 0.39 0.46 0.58 0.63 0.55 0.61 0.64 0.77 0.84 0.66 0.54 0.53 0.57 0.58 0.63
0.36 0.28 0.32 0.48 0.52 0.50 0.45 0.49 0.56 0.49 0.42 0.32 0.25 0.24 0.22 0.20 0.19 0.15 0.13 0.11 0.10 0.09 0.09 0.10 0.12 0.17 0.22 0.28 0.32 0.39 0.49 0.54 0.68 0.71 0.63 0.77 0.70 0.57 0.46 0.47 0.58 0.60 0.63
0.64 0.49 0.44 0.57 0.60 0.58 0.60 0.64 0.70 0.70 0.57 0.41 0.33 0.33 0.28 0.26 0.22 0.19 0.17 0.14 0.11 0.08 0.08 0.09 0.10 0.11 0.12 0.15 0.20 0.26 0.38 0.45 0.58 0.60 0.57 0.65 0.58 0.49 0.39 0.40 0.49 0.55 0.60
1.01 0.89 0.78 0.72 0.66 0.67 0.73 0.71 0.86 0.99 0.82 0.61 0.50 0.48 0.41 0.35 0.29 0.24 0.18 0.15 0.12 0.09 0.08 0.09 0.09 0.08 0.08 0.10 0.14 0.21 0.31 0.36 0.43 0.51 0.48 0.57 0.54 0.42 0.39 0.38 0.43 0.55 0.59
1.00 0.92 0.91 0.99 0.98 0.96 0.97 1.03 1.15 1.46 1.33 0.94 0.73 0.60 0.53 0.43 0.36 0.35 0.27 0.22 0.19 0.15 0.13 0.12 0.09 0.08 0.08 0.09 0.14 0.21 0.25 0.24 0.34 0.35 0.34 0.39 0.46 0.31 0.25 0.27 0.33 0.38 0.45
0.76 0.81 0.86 0.92 0.94 0.97 0.96 1.12 1.37 1.65 1.71 1.35 1.07 0.89 0.71 0.47 0.49 0.51 0.39 0.40 0.33 0.27 0.22 0.18 0.14 0.10 0.10 0.10 0.13 0.16 0.15 0.16 0.35 0.34 0.33 0.36 0.37 0.23 0.12 0.11 0.13 0.19 0.25
0.59 0.56 0.58 0.61 0.67 0.72 0.77 1.04 1.27 1.33 1.52 1.31 1.27 1.11 0.95 0.87 0.80 0.59 0.51 0.56 0.54 0.44 0.33 0.25 0.20 0.12 0.07 0.06 0.08 0.10 0.08 0.13 0.27 0.28 0.25 0.39 0.41 0.23 0.10 0.07 0.07 0.09 0.12
0.54 0.51 0.45 0.46 0.48 0.54 0.67 0.88 1.10 1.23 1.40 1.41 1.39 1.32 1.31 1.23 0.87 0.67 0.70 0.70 0.66 0.59 0.44 0.38 0.29 0.18 0.10 0.08 0.10 0.06 0.06 0.10 0.19 0.21 0.25 0.39 0.42 0.28 0.13 0.07 0.05 0.06 0.08
0.49 0.56 0.49 0.37 0.37 0.39 0.47 0.66 0.86 1.07 1.26 1.31 1.13 1.05 1.17 1.18 0.95 0.79 0.87 0.91 0.85 0.74 0.67 0.63 0.48 0.32 0.18 0.12 0.10 0.10 0.10 0.11 0.17 0.19 0.26 0.27 0.32 0.28 0.16 0.08 0.05 0.05 0.05
0.46 0.54 0.56 0.48 0.40 0.39 0.44 0.51 0.58 0.87 1.05 1.20 1.24 1.03 1.14 1.17 1.07 0.91 0.81 0.94 0.89 0.83 0.78 0.75 0.62 0.46 0.32 0.21 0.21 0.18 0.21 0.18 0.16 0.13 0.22 0.22 0.22 0.27 0.22 0.13 0.10 0.05 0.05
0.40 0.47 0.52 0.55 0.54 0.50 0.49 0.51 0.51 0.56 0.67 0.79 0.75 0.72 0.90 1.00 0.96 0.94 0.77 0.78 0.84 0.92 1.02 1.00 0.76 0.59 0.44 0.31 0.28 0.28 0.25 0.20 0.19 0.13 0.18 0.16 0.16 0.20 0.23 0.22 0.17 0.10 0.08
0.39 0.42 0.47 0.54 0.61 0.62 0.63 0.71 0.64 0.59 0.64 0.63 0.59 0.60 0.70 0.79 0.81 0.91 0.83 0.77 0.78 0.94 1.06 1.08 0.94 0.79 0.57 0.41 0.32 0.30 0.24 0.18 0.17 0.16 0.15 0.14 0.12 0.16 0.24 0.31 0.30 0.25 0.19
0.37 0.37 0.39 0.43 0.48 0.53 0.60 0.68 0.73 0.73 0.75 0.71 0.72 0.68 0.63 0.75 0.87 0.96 0.94 0.82 0.81 0.97 1.08 1.11 1.09 1.00 0.80 0.63 0.46 0.37 0.30 0.26 0.23 0.21 0.20 0.16 0.13 0.13 0.20 0.26 0.35 0.41 0.37
0.35 0.32 0.31 0.32 0.32 0.35 0.42 0.54 0.65 0.71 0.80 0.85 0.86 0.82 0.80 0.83 0.85 0.95 1.06 1.05 1.04 1.07 1.09 1.09 1.04 0.96 0.84 0.69 0.57 0.48 0.39 0.33 0.29 0.22 0.22 0.23 0.19 0.13 0.12 0.10 0.16 0.18 0.27
0.29 0.30 0.30 0.31 0.30 0.27 0.31 0.45 0.55 0.61 0.69 0.85 0.92 0.98 1.24 1.31 1.10 1.03 1.09 1.08 1.09 1.12 1.13 1.22 1.27 1.11 0.91 0.84 0.76 0.62 0.51 0.38 0.31 0.25 0.22 0.21 0.20 0.19 0.16 0.11 0.08 0.05 0.12
0.15 0.14 0.18 0.24 0.31 0.29 0.26 0.32 0.43 0.52 0.66 0.79 0.95 1.02 1.25 1.33 1.23 1.23 1.21 1.16 1.12 1.09 1.14 1.31 1.49 1.37 1.15 0.99 0.97 0.83 0.65 0.50 0.39 0.32 0.23 0.21 0.22 0.20 0.23 0.24 0.16 0.09 0.05
0.05 0.07 0.10 0.15 0.24 0.32 0.35 0.40 0.53 0.70 0.82 0.91 1.04 1.10 1.22 1.22 1.20 1.12 1.25 1.32 1.25 1.27 1.31 1.43 1.55 1.56 1.39 1.21 1.27 1.38 1.06 0.79 0.49 0.35 0.29 0.22 0.22 0.23 0.22 0.26 0.23 0.14 0.05
0.03 0.05 0.11 0.19 0.33 0.50 0.66 0.88 1.12 1.40 1.51 1.41 1.25 1.32 1.45 1.51 1.45 1.36 1.43 1.54 1.44 1.43 1.43 1.47 1.48 1.68 1.70 1.53 1.47 1.68 1.32 1.07 0.96 0.52 0.32 0.30 0.31 0.31 0.27 0.25 0.24 0.24 0.18
0.11 0.17 0.28 0.40 0.57 0.74 0.95 1.17 1.43 1.66 1.82 1.84 1.85 1.88 1.85 1.80 1.67 1.56 1.54 1.56 1.57 1.59 1.49 1.40 1.49 1.74 2.01 1.93 1.77 1.55 1.29 1.09 1.14 0.94 0.59 0.39 0.38 0.37 0.34 0.29 0.29 0.30 0.28
0.28 0.41 0.53 0.76 0.93 1.06 1.13 1.23 1.45 1.56 1.63 1.74 1.88 1.93 1.91 1.82 1.69 1.55 1.49 1.50 1.54 1.61 1.58 1.61 1.73 1.93 2.09 2.19 2.07 1.81 1.52 1.26 0.94 0.91 0.90 0.74 0.54 0.39 0.35 0.34 0.36 0.36 0.33
0.57 0.81 0.96 1.07 1.16 1.16 1.14 1.16 1.30 1.43 1.52 1.60 1.73 1.79 1.72 1.58 1.52 1.50 1.48 1.41 1.34 1.40 1.49 1.64 1.86 1.94 2.05 2.19 2.15 1.86 1.63 1.42 1.22 1.09 0.92 0.91 0.90 0.64 0.50 0.44 0.40 0.38 0.38